Time,TemperatureF,DewpointF,PressureIn,WindDirection,WindDirectionDegrees,WindSpeedMPH,WindSpeedGustMPH,Humidity,HourlyPrecipIn,Conditions,Clouds,dailyrainin,SoftwareType,DateUTC
2013-02-16 00:00:00,46.1,31.3,30.35,NNW,338,1.0,-999.0,56,0.00,,,0.00,Wunderground v.1.15,2013-02-16 08:00:00,
2013-02-16 00:05:00,46.1,31.3,30.35,NNW,338,1.0,-999.0,56,0.00,,,0.00,Wunderground v.1.15,2013-02-16 08:05:00,
2013-02-16 00:10:00,46.1,31.3,30.35,NNW,338,1.0,-999.0,56,0.00,,,0.00,Wunderground v.1.15,2013-02-16 08:10:00,
2013-02-16 00:15:00,46.0,30.3,30.36,NNW,338,2.0,-999.0,54,0.00,,,0.00,Wunderground v.1.15,2013-02-16 08:15:00,
2013-02-16 00:20:00,46.0,30.3,30.36,NNW,338,2.0,-999.0,54,0.00,,,0.00,Wunderground v.1.15,2013-02-16 08:20:00,
2013-02-16 00:25:00,46.4,30.2,30.36,NNW,338,1.0,-999.0,53,0.00,,,0.00,Wunderground v.1.15,2013-02-16 08:25:00,
2013-02-16 00:30:00,46.4,30.2,30.36,NNW,338,1.0,-999.0,53,0.00,,,0.00,Wunderground v.1.15,2013-02-16 08:30:00,
2013-02-16 00:35:00,46.8,30.1,30.35,NNW,338,1.0,-999.0,52,0.00,,,0.00,Wunderground v.1.15,2013-02-16 08:35:00,
2013-02-16 00:40:00,46.8,30.1,30.35,NNW,338,1.0,-999.0,52,0.00,,,0.00,Wunderground v.1.15,2013-02-16 08:40:00,
2013-02-16 00:45:00,46.6,29.4,30.36,NNW,338,1.0,-999.0,51,0.00,,,0.00,Wunderground v.1.15,2013-02-16 08:45:00,
2013-02-16 00:50:00,46.6,29.4,30.36,NNW,338,1.0,-999.0,51,0.00,,,0.00,Wunderground v.1.15,2013-02-16 08:50:00,
2013-02-16 00:55:00,46.6,28.9,30.36,NNW,338,1.0,-999.0,50,0.00,,,0.00,Wunderground v.1.15,2013-02-16 08:55:00,
2013-02-16 01:00:00,46.6,28.9,30.36,NNW,338,1.0,-999.0,50,0.00,,,0.00,Wunderground v.1.15,2013-02-16 09:00:00,
2013-02-16 01:05:00,46.8,29.1,30.36,NNW,338,1.0,-999.0,50,0.00,,,0.00,Wunderground v.1.15,2013-02-16 09:05:00,
2013-02-16 01:10:00,46.8,29.1,30.36,NNW,338,1.0,-999.0,50,0.00,,,0.00,Wunderground v.1.15,2013-02-16 09:10:00,
2013-02-16 01:15:00,46.5,28.8,30.36,NNW,338,1.0,-999.0,50,0.00,,,0.00,Wunderground v.1.15,2013-02-16 09:15:00,
2013-02-16 01:20:00,46.5,28.8,30.36,NNW,338,1.0,-999.0,50,0.00,,,0.00,Wunderground v.1.15,2013-02-16 09:20:00,
2013-02-16 01:25:00,46.3,28.7,30.36,NNW,338,1.0,-999.0,50,0.00,,,0.00,Wunderground v.1.15,2013-02-16 09:25:00,
2013-02-16 01:30:00,46.3,28.7,30.36,NNW,338,1.0,-999.0,50,0.00,,,0.00,Wunderground v.1.15,2013-02-16 09:30:00,
2013-02-16 01:35:00,46.1,28.5,30.36,NNW,338,1.0,-999.0,50,0.00,,,0.00,Wunderground v.1.15,2013-02-16 09:35:00,
2013-02-16 01:40:00,46.1,28.5,30.36,NNW,338,1.0,-999.0,50,0.00,,,0.00,Wunderground v.1.15,2013-02-16 09:40:00,
2013-02-16 01:45:00,46.1,27.5,30.36,NNW,338,1.0,-999.0,48,0.00,,,0.00,Wunderground v.1.15,2013-02-16 09:45:00,
2013-02-16 01:50:00,46.1,27.5,30.36,NNW,338,1.0,-999.0,48,0.00,,,0.00,Wunderground v.1.15,2013-02-16 09:50:00,
2013-02-16 01:55:00,46.2,27.6,30.36,NNW,338,1.0,-999.0,48,0.00,,,0.00,Wunderground v.1.15,2013-02-16 09:55:00,
2013-02-16 02:00:00,46.2,27.6,30.36,NNW,338,1.0,-999.0,48,0.00,,,0.00,Wunderground v.1.15,2013-02-16 10:00:00,
2013-02-16 02:05:00,45.5,27.9,30.36,NNW,338,1.0,-999.0,50,0.00,,,0.00,Wunderground v.1.15,2013-02-16 10:05:00,
2013-02-16 02:10:00,45.5,27.9,30.36,NNW,338,1.0,-999.0,50,0.00,,,0.00,Wunderground v.1.15,2013-02-16 10:10:00,
2013-02-16 02:15:00,44.9,26.9,30.36,NNW,338,1.0,-999.0,49,0.00,,,0.00,Wunderground v.1.15,2013-02-16 10:15:00,
2013-02-16 02:20:00,44.9,26.9,30.36,NNW,338,1.0,-999.0,49,0.00,,,0.00,Wunderground v.1.15,2013-02-16 10:20:00,
2013-02-16 02:25:00,45.1,26.1,30.35,NNW,338,1.0,-999.0,47,0.00,,,0.00,Wunderground v.1.15,2013-02-16 10:25:00,
2013-02-16 02:30:00,45.1,26.1,30.35,NNW,338,1.0,-999.0,47,0.00,,,0.00,Wunderground v.1.15,2013-02-16 10:30:00,
2013-02-16 02:35:00,45.2,26.1,30.35,NNW,338,1.0,-999.0,47,0.00,,,0.00,Wunderground v.1.15,2013-02-16 10:35:00,
2013-02-16 02:40:00,45.2,26.1,30.35,NNW,338,1.0,-999.0,47,0.00,,,0.00,Wunderground v.1.15,2013-02-16 10:40:00,
2013-02-16 02:45:00,45.0,26.0,30.35,NNW,338,1.0,-999.0,47,0.00,,,0.00,Wunderground v.1.15,2013-02-16 10:45:00,
2013-02-16 02:50:00,45.0,26.0,30.35,NNW,338,1.0,-999.0,47,0.00,,,0.00,Wunderground v.1.15,2013-02-16 10:50:00,
2013-02-16 02:55:00,44.9,26.4,30.35,NNW,338,1.0,-999.0,48,0.00,,,0.00,Wunderground v.1.15,2013-02-16 10:55:00,
2013-02-16 03:00:00,44.9,26.4,30.35,NNW,338,1.0,-999.0,48,0.00,,,0.00,Wunderground v.1.15,2013-02-16 11:00:00,
2013-02-16 03:05:00,44.1,25.6,30.34,NNW,338,1.0,-999.0,48,0.00,,,0.00,Wunderground v.1.15,2013-02-16 11:05:00,
2013-02-16 03:10:00,44.1,25.6,30.34,NNW,338,1.0,-999.0,48,0.00,,,0.00,Wunderground v.1.15,2013-02-16 11:10:00,
2013-02-16 03:15:00,44.5,25.0,30.34,NNW,338,1.0,-999.0,46,0.00,,,0.00,Wunderground v.1.15,2013-02-16 11:15:00,
2013-02-16 03:20:00,44.5,25.0,30.34,NNW,338,1.0,-999.0,46,0.00,,,0.00,Wunderground v.1.15,2013-02-16 11:20:00,
2013-02-16 03:25:00,44.7,24.6,30.34,NNW,338,1.0,-999.0,45,0.00,,,0.00,Wunderground v.1.15,2013-02-16 11:25:00,
2013-02-16 03:30:00,44.7,24.6,30.34,NNW,338,1.0,-999.0,45,0.00,,,0.00,Wunderground v.1.15,2013-02-16 11:30:00,
2013-02-16 03:35:00,44.9,24.3,30.33,NNW,338,1.0,-999.0,44,0.00,,,0.00,Wunderground v.1.15,2013-02-16 11:35:00,
2013-02-16 03:40:00,44.9,24.3,30.33,NNW,338,1.0,-999.0,44,0.00,,,0.00,Wunderground v.1.15,2013-02-16 11:40:00,
2013-02-16 03:45:00,45.3,24.6,30.33,NNW,338,1.0,-999.0,44,0.00,,,0.00,Wunderground v.1.15,2013-02-16 11:45:00,
2013-02-16 03:50:00,45.3,24.6,30.33,NNW,338,1.0,-999.0,44,0.00,,,0.00,Wunderground v.1.15,2013-02-16 11:50:00,
2013-02-16 03:55:00,45.2,23.4,30.33,NNW,338,2.0,-999.0,42,0.00,,,0.00,Wunderground v.1.15,2013-02-16 11:55:00,
2013-02-16 04:00:00,45.2,23.4,30.33,NNW,338,2.0,-999.0,42,0.00,,,0.00,Wunderground v.1.15,2013-02-16 12:00:00,
2013-02-16 04:05:00,45.7,23.9,30.33,NNW,338,2.0,-999.0,42,0.00,,,0.00,Wunderground v.1.15,2013-02-16 12:05:00,
2013-02-16 04:10:00,45.7,23.9,30.33,NNW,338,2.0,-999.0,42,0.00,,,0.00,Wunderground v.1.15,2013-02-16 12:10:00,
2013-02-16 04:15:00,45.3,24.1,30.33,NNW,338,2.0,-999.0,43,0.00,,,0.00,Wunderground v.1.15,2013-02-16 12:15:00,
2013-02-16 04:20:00,45.3,24.1,30.33,NNW,338,2.0,-999.0,43,0.00,,,0.00,Wunderground v.1.15,2013-02-16 12:20:00,
2013-02-16 04:25:00,44.2,23.6,30.33,NNW,338,1.0,-999.0,44,0.00,,,0.00,Wunderground v.1.15,2013-02-16 12:25:00,
2013-02-16 04:30:00,44.2,23.6,30.33,NNW,338,1.0,-999.0,44,0.00,,,0.00,Wunderground v.1.15,2013-02-16 12:30:00,
2013-02-16 04:35:00,44.4,23.3,30.33,NNW,338,1.0,-999.0,43,0.00,,,0.00,Wunderground v.1.15,2013-02-16 12:35:00,
2013-02-16 04:40:00,44.4,23.3,30.33,NNW,338,1.0,-999.0,43,0.00,,,0.00,Wunderground v.1.15,2013-02-16 12:40:00,
2013-02-16 04:45:00,44.4,23.8,30.32,NNW,338,1.0,-999.0,44,0.00,,,0.00,Wunderground v.1.15,2013-02-16 12:45:00,
2013-02-16 04:50:00,44.4,23.8,30.32,NNW,338,1.0,-999.0,44,0.00,,,0.00,Wunderground v.1.15,2013-02-16 12:50:00,
2013-02-16 04:55:00,44.3,22.6,30.32,NNW,338,1.0,-999.0,42,0.00,,,0.00,Wunderground v.1.15,2013-02-16 12:55:00,
2013-02-16 05:00:00,44.3,22.6,30.32,NNW,338,1.0,-999.0,42,0.00,,,0.00,Wunderground v.1.15,2013-02-16 13:00:00,
2013-02-16 05:05:00,45.2,22.3,30.32,NE,45,1.0,-999.0,40,0.00,,,0.00,Wunderground v.1.15,2013-02-16 13:05:00,
2013-02-16 05:10:00,45.2,22.3,30.32,NE,45,1.0,-999.0,40,0.00,,,0.00,Wunderground v.1.15,2013-02-16 13:10:00,
2013-02-16 05:15:00,45.7,22.1,30.32,NNE,23,2.0,-999.0,39,0.00,,,0.00,Wunderground v.1.15,2013-02-16 13:15:00,
2013-02-16 05:20:00,45.7,22.1,30.32,NNE,23,2.0,-999.0,39,0.00,,,0.00,Wunderground v.1.15,2013-02-16 13:20:00,
2013-02-16 05:25:00,45.5,23.1,30.32,North,0,2.0,-999.0,41,0.00,,,0.00,Wunderground v.1.15,2013-02-16 13:25:00,
2013-02-16 05:30:00,45.5,23.1,30.32,North,0,2.0,-999.0,41,0.00,,,0.00,Wunderground v.1.15,2013-02-16 13:30:00,
2013-02-16 05:35:00,44.6,22.9,30.32,North,0,2.0,-999.0,42,0.00,,,0.00,Wunderground v.1.15,2013-02-16 13:35:00,
2013-02-16 05:40:00,44.6,22.9,30.32,North,0,2.0,-999.0,42,0.00,,,0.00,Wunderground v.1.15,2013-02-16 13:40:00,
2013-02-16 05:45:00,43.8,22.2,30.32,NW,315,2.0,-999.0,42,0.00,,,0.00,Wunderground v.1.15,2013-02-16 13:45:00,
2013-02-16 05:50:00,43.8,22.2,30.32,NW,315,2.0,-999.0,42,0.00,,,0.00,Wunderground v.1.15,2013-02-16 13:50:00,
2013-02-16 05:55:00,43.8,22.7,30.31,NW,315,2.0,-999.0,43,0.00,,,0.00,Wunderground v.1.15,2013-02-16 13:55:00,
2013-02-16 06:00:00,43.8,22.7,30.31,NW,315,2.0,-999.0,43,0.00,,,0.00,Wunderground v.1.15,2013-02-16 14:00:00,
2013-02-16 06:05:00,43.5,21.9,30.31,NW,315,2.0,-999.0,42,0.00,,,0.00,Wunderground v.1.15,2013-02-16 14:05:00,
2013-02-16 06:10:00,43.5,21.9,30.31,NW,315,2.0,-999.0,42,0.00,,,0.00,Wunderground v.1.15,2013-02-16 14:10:00,
2013-02-16 06:15:00,43.4,22.4,30.31,NNW,338,2.0,-999.0,43,0.00,,,0.00,Wunderground v.1.15,2013-02-16 14:15:00,
2013-02-16 06:20:00,43.4,22.4,30.31,NNW,338,2.0,-999.0,43,0.00,,,0.00,Wunderground v.1.15,2013-02-16 14:20:00,
2013-02-16 06:25:00,43.2,22.2,30.31,NNW,338,1.0,-999.0,43,0.00,,,0.00,Wunderground v.1.15,2013-02-16 14:25:00,
2013-02-16 06:30:00,43.2,22.2,30.31,NNW,338,1.0,-999.0,43,0.00,,,0.00,Wunderground v.1.15,2013-02-16 14:30:00,
2013-02-16 06:35:00,43.6,22.0,30.30,NNW,338,1.0,-999.0,42,0.00,,,0.00,Wunderground v.1.15,2013-02-16 14:35:00,
2013-02-16 06:40:00,43.6,22.0,30.30,NNW,338,1.0,-999.0,42,0.00,,,0.00,Wunderground v.1.15,2013-02-16 14:40:00,
2013-02-16 06:45:00,44.3,20.3,30.30,NNW,338,0.0,-999.0,38,0.00,,,0.00,Wunderground v.1.15,2013-02-16 14:45:00,
2013-02-16 06:50:00,44.3,20.3,30.30,NNW,338,0.0,-999.0,38,0.00,,,0.00,Wunderground v.1.15,2013-02-16 14:50:00,
2013-02-16 06:55:00,45.4,23.0,30.30,North,0,1.0,-999.0,41,0.00,,,0.00,Wunderground v.1.15,2013-02-16 14:55:00,
2013-02-16 07:00:00,45.4,23.0,30.30,North,0,1.0,-999.0,41,0.00,,,0.00,Wunderground v.1.15,2013-02-16 15:00:00,
2013-02-16 07:05:00,44.6,22.3,30.30,North,0,1.0,-999.0,41,0.00,,,0.00,Wunderground v.1.15,2013-02-16 15:05:00,
2013-02-16 07:10:00,44.6,22.3,30.30,North,0,1.0,-999.0,41,0.00,,,0.00,Wunderground v.1.15,2013-02-16 15:10:00,
2013-02-16 07:25:00,44.5,22.2,30.30,North,5,1.0,1.0,41,0.00,,,0.00,Wunderground v.1.15,2013-02-16 15:25:00,
2013-02-16 07:30:00,44.7,22.4,30.30,North,5,1.0,1.0,41,0.00,,,0.00,Wunderground v.1.15,2013-02-16 15:30:00,
2013-02-16 07:40:00,45.7,22.1,30.31,North,5,1.0,2.0,39,0.00,,,0.00,Wunderground v.1.15,2013-02-16 15:40:00,
2013-02-16 07:45:00,46.3,22.7,30.31,North,5,1.0,2.0,39,0.00,,,0.00,Wunderground v.1.15,2013-02-16 15:45:00,
2013-02-16 07:55:00,46.3,22.7,30.31,North,355,1.0,1.0,39,0.00,,,0.00,Wunderground v.1.15,2013-02-16 15:55:00,
2013-02-16 08:00:00,45.8,22.8,30.31,North,355,1.0,1.0,40,0.00,,,0.00,Wunderground v.1.15,2013-02-16 16:00:00,
2013-02-16 08:10:00,46.6,22.9,30.31,North,355,1.0,1.0,39,0.00,,,0.00,Wunderground v.1.15,2013-02-16 16:10:00,
2013-02-16 08:19:00,47.1,23.4,30.31,North,355,1.0,1.0,39,0.00,,,0.00,Wunderground v.1.15,2013-02-16 16:19:00,
2013-02-16 08:24:00,47.5,23.7,30.31,North,355,1.0,1.0,39,0.00,,,0.00,Wunderground v.1.15,2013-02-16 16:24:00,
2013-02-16 08:29:00,48.0,24.8,30.31,North,355,0.0,0.0,40,0.00,,,0.00,Wunderground v.1.15,2013-02-16 16:29:00,
2013-02-16 08:35:00,48.3,25.1,30.30,North,355,0.0,0.0,40,0.00,,,0.00,Wunderground v.1.15,2013-02-16 16:35:00,
2013-02-16 08:44:00,49.0,25.7,30.30,North,355,0.0,1.0,40,0.00,,,0.00,Wunderground v.1.15,2013-02-16 16:44:00,
2013-02-16 08:49:00,49.7,26.3,30.30,North,355,1.0,1.0,40,0.00,,,0.00,Wunderground v.1.15,2013-02-16 16:49:00,
2013-02-16 09:00:00,51.0,26.9,30.30,North,355,1.0,1.0,39,0.00,,,0.00,Wunderground v.1.15,2013-02-16 17:00:00,
2013-02-16 09:10:00,51.8,28.2,30.30,North,355,0.0,0.0,40,0.00,,,0.00,Wunderground v.1.15,2013-02-16 17:10:00,
2013-02-16 09:15:00,52.7,28.4,30.30,North,355,0.0,0.0,39,0.00,,,0.00,Wunderground v.1.15,2013-02-16 17:15:00,
2013-02-16 09:25:00,54.9,30.4,30.30,North,355,0.0,1.0,39,0.00,,,0.00,Wunderground v.1.15,2013-02-16 17:25:00,
2013-02-16 11:05:00,60.9,27.5,30.28,East,82,0.0,1.0,28,0.00,,,0.00,Wunderground v.1.15,2013-02-16 19:05:00,
2013-02-16 11:14:00,61.7,27.3,30.28,SE,139,1.0,2.0,27,0.00,,,0.00,Wunderground v.1.15,2013-02-16 19:14:00,
2013-02-16 11:20:00,61.9,28.4,30.28,SE,136,1.0,1.0,28,0.00,,,0.00,Wunderground v.1.15,2013-02-16 19:20:00,
2013-02-16 11:30:00,62.2,27.8,30.28,ESE,117,1.0,2.0,27,0.00,,,0.00,Wunderground v.1.15,2013-02-16 19:30:00,
2013-02-16 11:40:00,62.4,28.8,30.28,ESE,121,1.0,3.0,28,0.00,,,0.00,Wunderground v.1.15,2013-02-16 19:40:00,
2013-02-16 11:45:00,62.3,30.4,30.27,ESE,122,1.0,3.0,30,0.00,,,0.00,Wunderground v.1.15,2013-02-16 19:45:00,
2013-02-16 11:50:00,62.1,31.1,30.27,ESE,119,1.0,3.0,31,0.00,,,0.00,Wunderground v.1.15,2013-02-16 19:50:00,
2013-02-16 12:00:00,62.6,33.8,30.26,SSW,200,1.0,2.0,34,0.00,,,0.00,Wunderground v.1.15,2013-02-16 20:00:00,
2013-02-16 12:10:00,63.2,32.8,30.26,WSW,241,1.0,1.0,32,0.00,,,0.00,Wunderground v.1.15,2013-02-16 20:10:00,
2013-02-16 12:15:00,63.0,33.4,30.26,WSW,242,1.0,1.0,33,0.00,,,0.00,Wunderground v.1.15,2013-02-16 20:15:00,
2013-02-16 12:20:00,63.1,34.3,30.25,SW,225,1.0,1.0,34,0.00,,,0.00,Wunderground v.1.15,2013-02-16 20:20:00,
2013-02-16 12:25:00,63.1,34.3,30.25,SW,225,0.0,1.0,34,0.00,,,0.00,Wunderground v.1.15,2013-02-16 20:25:00,
2013-02-16 12:35:00,63.3,35.2,30.25,South,178,1.0,1.0,35,0.00,,,0.00,Wunderground v.1.15,2013-02-16 20:35:00,
2013-02-16 12:45:00,62.6,33.8,30.25,SE,146,2.0,3.0,34,0.00,,,0.00,Wunderground v.1.15,2013-02-16 20:45:00,
2013-02-16 13:00:00,63.5,34.6,30.24,SSE,153,1.0,1.0,34,0.00,,,0.00,Wunderground v.1.15,2013-02-16 21:00:00,
2013-02-16 13:10:00,63.0,34.9,30.24,SE,140,1.0,1.0,35,0.00,,,0.00,Wunderground v.1.15,2013-02-16 21:10:00,
2013-02-16 13:19:00,62.6,33.8,30.23,SSE,150,1.0,1.0,34,0.00,,,0.00,Wunderground v.1.15,2013-02-16 21:19:00,
2013-02-16 13:24:00,62.5,36.5,30.23,SE,124,1.0,1.0,38,0.00,,,0.00,Wunderground v.1.15,2013-02-16 21:24:00,
2013-02-16 13:30:00,62.5,36.5,30.23,SE,125,1.0,2.0,38,0.00,,,0.00,Wunderground v.1.15,2013-02-16 21:30:00,
2013-02-16 13:35:00,62.3,35.0,30.23,South,169,1.0,2.0,36,0.00,,,0.00,Wunderground v.1.15,2013-02-16 21:35:00,
2013-02-16 13:45:00,62.6,35.9,30.22,ESE,111,1.0,2.0,37,0.00,,,0.00,Wunderground v.1.15,2013-02-16 21:45:00,
2013-02-16 13:55:00,62.5,34.5,30.22,SE,139,1.0,1.0,35,0.00,,,0.00,Wunderground v.1.15,2013-02-16 21:55:00,
2013-02-16 14:00:00,62.1,36.2,30.22,ESE,115,1.0,1.0,38,0.00,,,0.00,Wunderground v.1.15,2013-02-16 22:00:00,
2013-02-16 14:09:00,62.4,36.4,30.22,SW,215,0.0,1.0,38,0.00,,,0.00,Wunderground v.1.15,2013-02-16 22:09:00,
2013-02-16 14:19:00,61.9,37.3,30.21,SE,145,1.0,1.0,40,0.00,,,0.00,Wunderground v.1.15,2013-02-16 22:19:00,
2013-02-16 14:25:00,62.0,36.7,30.21,SE,142,0.0,1.0,39,0.00,,,0.00,Wunderground v.1.15,2013-02-16 22:25:00,
2013-02-16 14:35:00,62.1,36.2,30.21,WNW,298,0.0,1.0,38,0.00,,,0.00,Wunderground v.1.15,2013-02-16 22:35:00,
2013-02-16 14:45:00,62.0,38.0,30.20,WNW,294,0.0,0.0,41,0.00,,,0.00,Wunderground v.1.15,2013-02-16 22:45:00,
2013-02-16 14:55:00,61.9,37.9,30.20,WNW,294,0.0,1.0,41,0.00,,,0.00,Wunderground v.1.15,2013-02-16 22:55:00,
2013-02-16 15:00:00,61.7,37.7,30.20,WNW,294,0.0,0.0,41,0.00,,,0.00,Wunderground v.1.15,2013-02-16 23:00:00,
2013-02-16 15:10:00,61.2,36.7,30.19,SSE,155,1.0,1.0,40,0.00,,,0.00,Wunderground v.1.15,2013-02-16 23:10:00,
2013-02-16 15:20:00,61.2,37.3,30.19,ESE,119,1.0,2.0,41,0.00,,,0.00,Wunderground v.1.15,2013-02-16 23:20:00,
2013-02-16 15:25:00,61.1,36.6,30.19,ESE,119,1.0,2.0,40,0.00,,,0.00,Wunderground v.1.15,2013-02-16 23:25:00,
2013-02-16 15:35:00,61.1,37.8,30.19,ESE,119,0.0,0.0,42,0.00,,,0.00,Wunderground v.1.15,2013-02-16 23:35:00,
2013-02-16 15:45:00,60.9,38.8,30.18,ESE,119,0.0,0.0,44,0.00,,,0.00,Wunderground v.1.15,2013-02-16 23:45:00,
2013-02-16 15:54:00,60.4,37.2,30.18,ESE,119,1.0,1.0,42,0.00,,,0.00,Wunderground v.1.15,2013-02-16 23:54:00,
2013-02-16 16:00:00,60.1,36.9,30.18,ESE,119,0.0,0.0,42,0.00,,,0.00,Wunderground v.1.15,2013-02-17 00:00:00,
2013-02-16 16:09:00,59.9,37.3,30.18,ESE,119,0.0,0.0,43,0.00,,,0.00,Wunderground v.1.15,2013-02-17 00:09:00,
2013-02-16 16:14:00,59.8,37.8,30.18,ESE,119,0.0,0.0,44,0.00,,,0.00,Wunderground v.1.15,2013-02-17 00:14:00,
2013-02-16 16:20:00,59.6,37.6,30.18,ESE,119,0.0,0.0,44,0.00,,,0.00,Wunderground v.1.15,2013-02-17 00:20:00,
2013-02-16 16:30:00,59.3,36.8,30.17,ESE,121,0.0,0.0,43,0.00,,,0.00,Wunderground v.1.15,2013-02-17 00:30:00,
2013-02-16 16:40:00,58.9,36.4,30.17,ESE,121,0.0,0.0,43,0.00,,,0.00,Wunderground v.1.15,2013-02-17 00:40:00,
2013-02-16 16:50:00,58.7,35.0,30.17,ESE,121,0.0,0.0,41,0.00,,,0.00,Wunderground v.1.15,2013-02-17 00:50:00,
2013-02-16 16:55:00,58.7,35.0,30.17,ESE,121,0.0,0.0,41,0.00,,,0.00,Wunderground v.1.15,2013-02-17 00:55:00,
2013-02-16 17:00:00,58.7,35.7,30.17,ESE,121,0.0,0.0,42,0.00,,,0.00,Wunderground v.1.15,2013-02-17 01:00:00,
2013-02-16 17:10:00,58.4,35.4,30.17,ESE,121,0.0,0.0,42,0.00,,,0.00,Wunderground v.1.15,2013-02-17 01:10:00,
2013-02-16 17:20:00,57.9,34.9,30.17,ESE,121,0.0,0.0,42,0.00,,,0.00,Wunderground v.1.15,2013-02-17 01:20:00,
2013-02-16 17:25:00,57.8,35.4,30.17,ESE,121,0.0,0.0,43,0.00,,,0.00,Wunderground v.1.15,2013-02-17 01:25:00,
2013-02-16 17:40:00,57.1,37.6,30.17,ESE,121,0.0,0.0,48,0.00,,,0.00,Wunderground v.1.15,2013-02-17 01:40:00,
2013-02-16 17:45:00,56.8,37.8,30.17,ESE,121,0.0,0.0,49,0.00,,,0.00,Wunderground v.1.15,2013-02-17 01:45:00,
2013-02-16 17:55:00,56.1,38.2,30.17,ESE,121,0.0,0.0,51,0.00,,,0.00,Wunderground v.1.15,2013-02-17 01:55:00,
2013-02-16 18:00:00,55.8,37.9,30.17,ESE,121,0.0,0.0,51,0.00,,,0.00,Wunderground v.1.15,2013-02-17 02:00:00,
2013-02-16 18:10:00,54.9,38.6,30.16,ESE,121,0.0,0.0,54,0.00,,,0.00,Wunderground v.1.15,2013-02-17 02:10:00,
2013-02-16 18:15:00,54.1,37.3,30.16,ESE,121,0.0,1.0,53,0.00,,,0.00,Wunderground v.1.15,2013-02-17 02:15:00,
2013-02-16 18:25:00,53.6,36.9,30.16,ESE,121,1.0,1.0,53,0.00,,,0.00,Wunderground v.1.15,2013-02-17 02:25:00,
2013-02-16 18:35:00,53.5,36.3,30.16,ESE,121,0.0,0.0,52,0.00,,,0.00,Wunderground v.1.15,2013-02-17 02:35:00,
2013-02-16 18:44:00,53.7,36.5,30.16,ESE,121,0.0,0.0,52,0.00,,,0.00,Wunderground v.1.15,2013-02-17 02:44:00,
2013-02-16 18:50:00,53.7,36.5,30.16,ESE,121,0.0,0.0,52,0.00,,,0.00,Wunderground v.1.15,2013-02-17 02:50:00,
2013-02-16 18:55:00,53.3,37.5,30.16,ESE,120,0.0,0.0,55,0.00,,,0.00,Wunderground v.1.15,2013-02-17 02:55:00,
2013-02-16 19:00:00,52.7,38.3,30.16,ESE,120,1.0,1.0,58,0.00,,,0.00,Wunderground v.1.15,2013-02-17 03:00:00,
2013-02-16 19:10:00,52.6,37.8,30.16,ESE,120,0.0,0.0,57,0.00,,,0.00,Wunderground v.1.15,2013-02-17 03:10:00,
2013-02-16 19:15:00,52.8,37.5,30.16,ESE,120,0.0,0.0,56,0.00,,,0.00,Wunderground v.1.15,2013-02-17 03:15:00,
2013-02-16 19:20:00,53.0,37.7,30.16,ESE,120,0.0,0.0,56,0.00,,,0.00,Wunderground v.1.15,2013-02-17 03:20:00,
2013-02-16 19:25:00,52.6,37.8,30.16,ESE,120,0.0,0.0,57,0.00,,,0.00,Wunderground v.1.15,2013-02-17 03:25:00,
2013-02-16 19:30:00,51.6,37.7,30.16,ESE,120,0.0,1.0,59,0.00,,,0.00,Wunderground v.1.15,2013-02-17 03:30:00,
2013-02-16 19:35:00,51.1,38.1,30.16,ESE,120,1.0,1.0,61,0.00,,,0.00,Wunderground v.1.15,2013-02-17 03:35:00,
2013-02-16 19:45:00,51.1,38.5,30.16,East,90,1.0,1.0,62,0.00,,,0.00,Wunderground v.1.15,2013-02-17 03:45:00,
2013-02-16 19:50:00,50.9,38.3,30.16,East,90,1.0,2.0,62,0.00,,,0.00,Wunderground v.1.15,2013-02-17 03:50:00,
2013-02-16 19:55:00,50.2,38.5,30.16,East,90,1.0,2.0,64,0.00,,,0.00,Wunderground v.1.15,2013-02-17 03:55:00,
2013-02-16 20:00:00,49.7,38.8,30.16,East,90,1.0,1.0,66,0.00,,,0.00,Wunderground v.1.15,2013-02-17 04:00:00,
2013-02-16 20:10:00,50.1,38.4,30.16,East,90,0.0,0.0,64,0.00,,,0.00,Wunderground v.1.15,2013-02-17 04:10:00,
2013-02-16 20:15:00,50.4,38.7,30.16,East,90,0.0,1.0,64,0.00,,,0.00,Wunderground v.1.15,2013-02-17 04:15:00,
2013-02-16 20:25:00,48.6,38.5,30.16,NNE,28,2.0,2.0,68,0.00,,,0.00,Wunderground v.1.15,2013-02-17 04:25:00,
2013-02-16 20:34:00,48.1,38.0,30.16,NNE,28,1.0,2.0,68,0.00,,,0.00,Wunderground v.1.15,2013-02-17 04:34:00,
2013-02-16 20:40:00,48.4,38.3,30.16,NNE,28,0.0,0.0,68,0.00,,,0.00,Wunderground v.1.15,2013-02-17 04:40:00,
2013-02-16 20:50:00,47.6,37.9,30.16,North,5,1.0,1.0,69,0.00,,,0.00,Wunderground v.1.15,2013-02-17 04:50:00,
2013-02-16 20:55:00,47.5,38.2,30.16,North,5,1.0,1.0,70,0.00,,,0.00,Wunderground v.1.15,2013-02-17 04:55:00,
2013-02-16 21:00:00,47.2,37.9,30.16,NNW,338,1.0,1.0,70,0.00,,,0.00,Wunderground v.1.15,2013-02-17 05:00:00,
2013-02-16 21:05:00,47.2,37.9,30.15,NNW,338,1.0,1.0,70,0.00,,,0.00,Wunderground v.1.15,2013-02-17 05:05:00,
2013-02-16 21:15:00,48.4,37.9,30.15,NE,53,1.0,1.0,67,0.00,,,0.00,Wunderground v.1.15,2013-02-17 05:15:00,
2013-02-16 21:20:00,48.5,38.0,30.15,NE,53,0.0,1.0,67,0.00,,,0.00,Wunderground v.1.15,2013-02-17 05:20:00,
2013-02-16 21:25:00,48.2,37.8,30.15,NE,55,0.0,1.0,67,0.00,,,0.00,Wunderground v.1.15,2013-02-17 05:25:00,
2013-02-16 21:34:00,49.3,37.2,30.15,East,80,1.0,1.0,63,0.00,,,0.00,Wunderground v.1.15,2013-02-17 05:34:00,
2013-02-16 21:40:00,49.6,37.1,30.15,ENE,58,1.0,4.0,62,0.00,,,0.00,Wunderground v.1.15,2013-02-17 05:40:00,
2013-02-16 21:50:00,49.5,37.8,30.15,NE,42,1.0,2.0,64,0.00,,,0.00,Wunderground v.1.15,2013-02-17 05:50:00,
2013-02-16 21:55:00,48.5,36.9,30.15,NE,39,1.0,4.0,64,0.00,,,0.00,Wunderground v.1.15,2013-02-17 05:55:00,
2013-02-16 22:00:00,48.8,36.8,30.14,ENE,77,2.0,2.0,63,0.00,,,0.00,Wunderground v.1.15,2013-02-17 06:00:00,
2013-02-16 22:10:00,49.2,36.7,30.14,ESE,119,1.0,1.0,62,0.00,,,0.00,Wunderground v.1.15,2013-02-17 06:10:00,
2013-02-16 22:15:00,48.8,37.2,30.14,ESE,108,1.0,2.0,64,0.00,,,0.00,Wunderground v.1.15,2013-02-17 06:15:00,
2013-02-16 22:25:00,46.1,36.1,30.14,North,5,2.0,2.0,68,0.00,,,0.00,Wunderground v.1.15,2013-02-17 06:25:00,
2013-02-16 22:35:00,45.5,35.9,30.14,North,355,2.0,2.0,69,0.00,,,0.00,Wunderground v.1.15,2013-02-17 06:35:00,
2013-02-16 23:00:00,44.0,35.6,30.14,NNE,23,1.0,-999.0,72,0.00,,,0.00,Wunderground v.1.15,2013-02-17 07:00:00,
2013-02-16 23:05:00,43.8,35.4,30.14,NW,315,2.0,-999.0,72,0.00,,,0.00,Wunderground v.1.15,2013-02-17 07:05:00,
2013-02-16 23:10:00,43.8,35.4,30.14,NW,315,2.0,-999.0,72,0.00,,,0.00,Wunderground v.1.15,2013-02-17 07:10:00,
2013-02-16 23:15:00,44.4,34.9,30.14,NW,315,1.0,-999.0,69,0.00,,,0.00,Wunderground v.1.15,2013-02-17 07:15:00,
2013-02-16 23:20:00,44.4,34.9,30.14,NW,315,1.0,-999.0,69,0.00,,,0.00,Wunderground v.1.15,2013-02-17 07:20:00,
2013-02-16 23:25:00,44.9,35.0,30.14,NW,315,1.0,-999.0,68,0.00,,,0.00,Wunderground v.1.15,2013-02-17 07:25:00,
2013-02-16 23:30:00,44.9,35.0,30.14,NW,315,1.0,-999.0,68,0.00,,,0.00,Wunderground v.1.15,2013-02-17 07:30:00,
2013-02-16 23:35:00,45.2,34.9,30.13,NW,315,0.0,-999.0,67,0.00,,,0.00,Wunderground v.1.15,2013-02-17 07:35:00,
2013-02-16 23:40:00,45.2,34.9,30.13,NW,315,0.0,-999.0,67,0.00,,,0.00,Wunderground v.1.15,2013-02-17 07:40:00,
2013-02-16 23:45:00,44.8,35.6,30.13,NW,315,2.0,-999.0,70,0.00,,,0.00,Wunderground v.1.15,2013-02-17 07:45:00,
2013-02-16 23:50:00,44.8,35.6,30.13,NW,315,2.0,-999.0,70,0.00,,,0.00,Wunderground v.1.15,2013-02-17 07:50:00,
2013-02-16 23:55:00,43.9,34.4,30.13,NNW,338,1.0,-999.0,69,0.00,,,0.00,Wunderground v.1.15,2013-02-17 07:55:00,